[[{"header":{"parameterUnit":"m.s-1","parameterCategory":2,"la1":30.2991,"la2":30.254,"lo1":-89.0895,"lo2":-89.0444,"dy":0.0017,"dx":0.0017,"nx":28,"ny":28,"refTime":"2026-02-10T09:00:00:Z","depth":"0","parameterNumber":2,"parameterNumberName":"U-component_of_CURRENTS"},"data":[0,0,0,0,0,0,0,0,0,0,0,0,0,0,0,0,0,0,0,0,0,0,0,0,0,0,0,0,0,0,0,0,0,0,0,0,0,0,0,0,0,0,0,0,0,0,0,0,0,0,0,0,0,0,0,0,0,0,-0.3153,-0.3153,0,-0.3102,-0.3101,-0.31,-0.3049,-0.3048,-0.3048,-0.3048,-0.2944,-0.2941,-0.2939,0,0,0,0,0,0,0,0,0,0,0,0,0,-0.3066,-0.3069,-0.3154,-0.3153,-0.3153,-0.3102,-0.3101,-0.31,-0.3049,-0.3048,-0.3048,-0.3047,-0.2944,-0.2942,-0.2939,0,0,0,0,0,0,0,0,0,0,0,0,0,-0.3067,-0.307,-0.3154,-0.3123,-0.3119,-0.3102,-0.3101,-0.31,-0.3049,-0.3048,-0.3048,-0.3047,-0.2945,-0.2942,-0.2938,-0.2931,0,0,-0.2928,-0.2926,0,0,0,0,0,0,0,0,-0.3067,-0.307,-0.3128,-0.3125,-0.3121,-0.3083,-0.3032,-0.3042,-0.3049,-0.3074,-0.3048,-0.3047,-0.2987,-0.298,-0.297,-0.2926,-0.2922,-0.2927,-0.2925,-0.2924,-0.2923,0,0,0,0,0,0,0,-0.3067,-0.3071,-0.3131,-0.3127,-0.3123,-0.3063,-0.3063,-0.3033,-0.3032,-0.3071,-0.3068,-0.3066,-0.2985,-0.2973,-0.2967,-0.292,-0.2927,-0.2924,-0.2922,-0.2921,-0.2869,-0.287,0,0,0,0,0,0,-0.3087,-0.3072,-0.3133,-0.3129,-0.3094,-0.3066,-0.3066,-0.3094,-0.3034,-0.3025,-0.3067,-0.3064,-0.298,-0.2971,-0.2963,-0.2937,-0.2924,-0.2921,-0.2919,-0.2868,-0.2869,-0.287,0,0,0,0,0,0,-0.3086,-0.3094,-0.3135,-0.3099,-0.31,-0.3069,-0.31,-0.3094,-0.3082,-0.3031,-0.3021,-0.3063,-0.2979,-0.2968,-0.2945,-0.2933,-0.2919,-0.2916,-0.2868,-0.2869,-0.287,-0.2893,0,0,0,0,0,0,-0.3084,-0.3095,-0.3116,-0.3102,-0.3103,-0.3144,-0.3101,-0.3093,-0.3083,-0.3079,-0.3024,-0.3014,-0.2977,-0.2951,-0.2942,-0.2928,-0.2913,-0.2867,-0.2868,-0.2869,-0.2891,-0.2895,-0.2898,0,0,0,0,0,-0.3082,-0.3133,-0.3118,-0.3124,-0.3137,-0.3146,-0.3141,-0.3112,-0.3084,-0.3095,-0.3052,-0.3016,-0.2953,-0.2949,-0.2938,-0.2922,-0.2866,-0.2868,-0.2869,-0.289,-0.2894,-0.2898,0,0,0,0,0,0,-0.3114,-0.3132,-0.3115,-0.3171,-0.3161,-0.3138,-0.3146,-0.3119,-0.3093,-0.3086,-0.3025,-0.3013,-0.2991,-0.2963,-0.296,-0.2916,-0.2903,-0.2903,-0.2923,-0.2926,-0.2929,-0.2899,-0.291,0,0,0,0,0,-0.313,-0.3161,-0.3163,-0.3197,-0.3204,-0.317,-0.3165,-0.315,-0.3126,-0.3114,-0.3072,-0.3029,-0.299,-0.2964,-0.294,-0.2912,-0.2858,-0.2897,-0.2901,-0.2903,-0.2874,-0.2785,-0.2776,-0.2875,-0.2875,-0.2875,0,0,-0.3147,-0.3159,-0.3176,-0.3202,-0.3191,-0.3196,-0.3166,-0.3178,-0.3159,-0.3107,-0.3077,-0.3046,-0.2991,-0.2963,-0.2948,-0.2933,-0.2857,-0.2905,-0.2907,-0.2876,-0.2786,-0.2775,-0.2766,-0.2876,-0.2876,-0.2876,0,0,-0.3176,-0.3215,-0.3235,-0.3243,-0.3241,-0.3227,-0.3234,-0.322,-0.3197,-0.3174,-0.3124,-0.3083,-0.3038,-0.2981,-0.2945,-0.2951,-0.2886,-0.2955,-0.2927,-0.2843,-0.2832,-0.2822,-0.2776,-0.2761,-0.2944,-0.2944,-0.2944,0,-0.3186,-0.3203,-0.324,-0.3256,-0.3241,-0.3243,-0.3234,-0.3233,-0.3204,-0.3161,-0.3175,-0.3063,-0.3035,-0.2942,-0.2949,-0.2952,-0.2905,-0.2914,-0.2842,-0.2831,-0.2821,-0.2774,-0.2758,-0.2945,-0.2945,-0.2945,-0.2945,0,-0.3209,-0.3221,-0.324,-0.3247,-0.326,-0.3258,-0.3263,-0.3258,-0.3228,-0.319,-0.3119,-0.3081,-0.2994,-0.2995,-0.297,-0.2878,-0.2873,-0.2865,-0.2824,-0.2811,-0.2765,-0.2748,-0.2947,-0.2947,-0.2946,-0.2946,0,0,-0.3185,-0.3237,-0.323,-0.3196,-0.3239,-0.3227,-0.3243,-0.3196,-0.3142,-0.3139,-0.3037,-0.3001,-0.2965,-0.2923,-0.2889,-0.2822,-0.2738,-0.2811,-0.2806,-0.275,-0.2567,-0.2493,-0.2467,-0.2709,-0.2705,-0.2702,-0.2576,0,-0.3145,-0.3138,-0.3192,-0.3152,-0.3125,-0.316,-0.3151,-0.3132,-0.3107,-0.3035,-0.2987,-0.2908,-0.2943,-0.2887,-0.2831,-0.2758,-0.2687,-0.2774,-0.2599,-0.2594,-0.2516,-0.2442,-0.2351,-0.2222,-0.2559,-0.2556,-0.2553,0,-0.3092,-0.3082,-0.3044,-0.3021,-0.3018,-0.3015,-0.2952,-0.2953,-0.2911,-0.2892,-0.2837,-0.281,-0.2727,-0.2754,-0.2621,-0.2674,-0.2613,-0.2567,-0.2561,-0.2458,-0.2484,-0.2284,-0.2177,-0.2166,-0.2526,-0.2528,-0.253,0,-0.2933,-0.295,-0.2888,-0.289,-0.2907,-0.2879,-0.2882,-0.2873,-0.285,-0.2787,-0.2759,-0.2677,-0.2622,-0.2544,-0.2506,-0.254,-0.2353,-0.2387,-0.2261,-0.2259,-0.2124,-0.2114,-0.1961,-0.225,-0.225,-0.2251,-0.2251,0,-0.2801,-0.2748,-0.2801,-0.2755,-0.2682,-0.2745,-0.2672,-0.2681,-0.2675,-0.263,-0.2659,-0.2606,-0.2562,-0.2485,-0.2445,-0.23,-0.2305,-0.2216,-0.2192,-0.2137,-0.213,-0.2069,-0.2115,-0.2246,-0.2247,-0.2248,-0.2249,0,-0.2608,-0.2649,-0.2585,-0.2598,-0.26,-0.2543,-0.2582,-0.2542,-0.2569,-0.2516,-0.2499,-0.2511,-0.2422,-0.2382,-0.2244,-0.2204,-0.2034,-0.2027,-0.1989,-0.196,-0.1826,-0.1879,-0.1691,-0.1636,-0.1847,-0.1844,-0.1841,0,-0.2492,-0.244,-0.2461,-0.2445,-0.2445,-0.241,-0.2402,-0.2458,-0.245,-0.2461,-0.2421,-0.2353,-0.2286,-0.21,-0.1992,-0.1858,-0.1896,-0.1705,-0.1735,-0.1757,-0.1799,-0.1858,-0.1832,-0.1594,-0.1589,-0.1586,-0.1583,0,-0.2277,-0.2311,-0.2284,-0.2266,-0.2252,-0.2243,-0.2246,-0.2232,-0.2298,-0.228,-0.2243,-0.2186,-0.2039,-0.1861,-0.1709,-0.1632,-0.1665,-0.1625,-0.163,-0.1546,-0.1614,-0.1571,-0.179,-0.1551,-0.1554,-0.1557,-0.1558,-0.156,-0.2136,-0.21,-0.2108,-0.2074,-0.2077,-0.2064,-0.2007,-0.2044,-0.2015,-0.1956,-0.202,-0.1878,-0.1782,-0.1548,-0.1463,-0.1306,-0.14,-0.1271,-0.1324,-0.1377,-0.1326,-0.1487,-0.1235,-0.1237,-0.1238,-0.1239,-0.124,0,-0.1956,-0.1953,-0.1921,-0.1894,-0.1845,-0.1903,-0.189,-0.1821,-0.1748,-0.1693,-0.163,-0.1486,-0.1351,-0.1269,-0.1131,-0.1043,-0.1037,-0.103,-0.1099,-0.1079,-0.1175,-0.1166,-0.0909,-0.0909,-0.0909,-0.0909,-0.0909,-0.0909,-0.1865,-0.1793,-0.1792,-0.1666,-0.165,-0.1542,-0.1506,-0.1436,-0.1358,-0.1162,-0.1033,-0.0932,-0.0992,-0.1127,-0.1029,-0.0958,-0.0959,-0.0917,-0.0959,-0.1064,-0.1092,-0.1119,-0.1118,-0.0854,-0.0854,-0.0809,-0.0809,-0.0809]},{"header":{"parameterUnit":"m.s-1","parameterCategory":2,"la1":30.2991,"la2":30.254,"lo1":-89.0895,"lo2":-89.0444,"dy":0.0017,"dx":0.0017,"nx":28,"ny":28,"refTime":"2026-02-10T09:00:00:Z","depth":"0","parameterNumber":3,"parameterNumberName":"V-component_of_CURRENTS"},"data":[0,0,0,0,0,0,0,0,0,0,0,0,0,0,0,0,0,0,0,0,0,0,0,0,0,0,0,0,0,0,0,0,0,0,0,0,0,0,0,0,0,0,0,0,0,0,0,0,0,0,0,0,0,0,0,0,0,0,0.0034,0.0035,0,0.015,0.0152,0.0153,0.0235,0.0235,0.0236,0.0236,0.0389,0.0393,0.0396,0,0,0,0,0,0,0,0,0,0,0,0,0,-0.0183,-0.0179,0.0034,0.0036,0.0037,0.015,0.0152,0.0154,0.0235,0.0235,0.0236,0.0237,0.0388,0.0392,0.0397,0,0,0,0,0,0,0,0,0,0,0,0,0,-0.0078,-0.0178,0.0034,0.009,0.0096,0.015,0.0152,0.0154,0.0235,0.0235,0.0236,0.0237,0.0386,0.0392,0.0397,0.0417,0,0,0.0414,0.0416,0,0,0,0,0,0,0,0,-0.0084,-0.007,0.008,0.0086,0.0093,0.0177,0.0131,0.0243,0.0235,0.0184,0.0236,0.0237,0.032,0.0331,0.0353,0.0424,0.0431,0.0414,0.0418,0.042,0.0421,0,0,0,0,0,0,0,-0.0091,-0.0075,0.0082,0.0081,0.0089,0.0086,0.0102,0.0152,0.0249,0.0188,0.0194,0.0204,0.0324,0.0348,0.0358,0.0433,0.0414,0.0419,0.0422,0.0424,0.0529,0.0528,0,0,0,0,0,0,-0.0106,-0.0081,0.0078,0.0085,0.0002,0.0089,0.0108,0.0151,0.0248,0.0262,0.0203,0.0207,0.0338,0.0351,0.0363,0.0392,0.042,0.0425,0.0428,0.0529,0.0529,0.0528,0,0,0,0,0,0,-0.0111,-0.0092,0.0074,0.0001,0.0021,0.0093,0.014,0.0153,0.0178,0.0258,0.0274,0.0215,0.0339,0.0356,0.0394,0.0398,0.0427,0.0432,0.053,0.0529,0.0528,0.0449,0,0,0,0,0,0,-0.0117,-0.0093,-0.0072,0.0001,0.0025,0.0098,0.014,0.0154,0.0182,0.0189,0.0274,0.0289,0.0341,0.0385,0.0399,0.0406,0.0437,0.053,0.0529,0.0529,0.0452,0.0445,0.044,0,0,0,0,0,-0.0124,-0.0097,-0.0071,-0.0052,0.0055,0.0098,0.0109,0.0162,0.0182,0.0188,0.0237,0.0286,0.039,0.0389,0.0406,0.0414,0.0531,0.053,0.0529,0.0455,0.0447,0.044,0,0,0,0,0,0,-0.0178,-0.0084,-0.0054,0.0003,0.0041,0.0111,0.0122,0.0154,0.0199,0.0203,0.0278,0.0296,0.0331,0.0378,0.0375,0.044,0.047,0.0472,0.0408,0.0401,0.0395,0.0384,0.0441,0,0,0,0,0,-0.0182,-0.014,-0.0063,-0.0027,-0.0005,0.0055,0.0077,0.0109,0.0158,0.018,0.0237,0.0293,0.0339,0.0372,0.0418,0.0454,0.0474,0.047,0.0464,0.0459,0.046,0.0459,0.0452,0.0524,0.0524,0.0524,0,0,-0.0198,-0.0142,-0.0119,-0.0038,-0.0001,0.0024,0.0071,0.0098,0.0117,0.0188,0.0227,0.027,0.034,0.0377,0.0399,0.042,0.0449,0.0457,0.0452,0.0457,0.0457,0.045,0.0443,0.0524,0.0524,0.0524,0,0,-0.0239,-0.0155,-0.015,-0.0107,-0.0056,-0.001,-0.0007,0.0058,0.0089,0.0123,0.0176,0.0216,0.0293,0.0343,0.0379,0.0366,0.0409,0.0383,0.0356,0.0353,0.0347,0.0342,0.0358,0.0355,0.0388,0.0388,0.0388,0,-0.0272,-0.0234,-0.015,-0.0133,-0.011,-0.003,-0.0033,0.002,0.0084,0.0096,0.0123,0.0213,0.0279,0.0322,0.0328,0.0355,0.0358,0.0377,0.0344,0.0339,0.0335,0.0353,0.035,0.0384,0.0385,0.0385,0.0386,0,-0.0315,-0.0277,-0.0271,-0.0213,-0.0173,-0.0163,-0.0079,-0.0048,-0.0005,0.0039,0.0076,0.0155,0.0206,0.0239,0.029,0.03,0.0313,0.0325,0.0358,0.0322,0.0344,0.0343,0.0379,0.038,0.0381,0.0382,0,0,-0.0416,-0.0325,-0.0325,-0.0317,-0.0217,-0.0201,-0.015,-0.0104,-0.0101,-0.0021,-0.0026,0.0083,0.0117,0.0159,0.0221,0.0245,0.0237,0.0274,0.0276,0.0282,0.0233,0.0309,0.0316,0.0228,0.0227,0.0227,0.0258,0,-0.0493,-0.0494,-0.0416,-0.0418,-0.0409,-0.0305,-0.0273,-0.0211,-0.0154,-0.0132,-0.0038,-0.0011,0.0091,0.0099,0.0142,0.02,0.0229,0.0228,0.0274,0.0276,0.0341,0.0316,0.0364,0.0401,0.0258,0.0257,0.0257,0,-0.0567,-0.0558,-0.0575,-0.0526,-0.0516,-0.0497,-0.0448,-0.0411,-0.0325,-0.0286,-0.0222,-0.0152,-0.0076,-0.001,0.0096,0.0082,0.0157,0.0212,0.0214,0.0315,0.0351,0.0415,0.0405,0.0543,0.0256,0.0256,0.0256,0,-0.0694,-0.0669,-0.0695,-0.067,-0.0596,-0.0595,-0.056,-0.0472,-0.0449,-0.0391,-0.0379,-0.0283,-0.0238,-0.0146,0.0036,0.0036,0.014,0.0145,0.029,0.0297,0.0366,0.038,0.0491,0.0205,0.0205,0.0204,0.0204,0,-0.0786,-0.0804,-0.0762,-0.0768,-0.0807,-0.0717,-0.0738,-0.068,-0.0619,-0.0594,-0.0477,-0.043,-0.0274,-0.0164,-0.0027,0.015,0.0096,0.0286,0.0307,0.0342,0.0353,0.0501,0.0549,0.0206,0.0205,0.0205,0.0205,0,-0.0879,-0.0854,-0.0881,-0.0856,-0.0853,-0.0876,-0.0828,-0.0834,-0.0767,-0.0734,-0.0718,-0.0558,-0.0401,-0.0219,-0.0055,0.0081,0.032,0.0306,0.0357,0.0385,0.0627,0.0668,0.0799,0.089,0.0426,0.0428,0.043,0,-0.0913,-0.0938,-0.0952,-0.0973,-0.0959,-0.0975,-0.0974,-0.0909,-0.0892,-0.0781,-0.0768,-0.0614,-0.0447,-0.0166,0.0077,0.0308,0.0427,0.0482,0.0502,0.0655,0.0715,0.0744,0.0813,0.0558,0.056,0.0562,0.0564,0,-0.097,-0.098,-0.1,-0.1055,-0.1076,-0.1093,-0.1083,-0.109,-0.0996,-0.0932,-0.0792,-0.066,-0.0353,-0.0041,0.0264,0.0408,0.0588,0.0533,0.0665,0.0813,0.0876,0.0969,0.0534,0.0583,0.0581,0.058,0.0579,0.0578,-0.1001,-0.1039,-0.1072,-0.1119,-0.1153,-0.118,-0.1179,-0.1126,-0.1069,-0.0874,-0.0772,-0.044,-0.0105,0.0343,0.0488,0.0816,0.0769,0.0918,0.0949,0.0961,0.1074,0.0701,0.0794,0.0794,0.0793,0.0793,0.0792,0,-0.1024,-0.1067,-0.1125,-0.1178,-0.1221,-0.1222,-0.1219,-0.1154,-0.1042,-0.0759,-0.0537,0.0018,0.036,0.0682,0.1059,0.1227,0.1256,0.1307,0.1351,0.1397,0.1045,0.108,0.1272,0.1272,0.1272,0.1271,0.1271,0.1271,-0.1035,-0.1096,-0.1132,-0.1209,-0.1246,-0.1258,-0.1246,-0.1094,-0.0874,-0.0375,0.0081,0.0405,0.0807,0.1246,0.1569,0.1595,0.1743,0.1723,0.1801,0.1553,0.1518,0.1485,0.1531,0.1815,0.1816,0.2158,0.2161,0.2163]}],[{"header":{"parameterUnit":"m.s-1","parameterCategory":2,"la1":30.2991,"la2":30.254,"lo1":-89.0895,"lo2":-89.0444,"dy":0.0017,"dx":0.0017,"nx":28,"ny":28,"refTime":"2026-02-10T09:00:00:Z","depth":"2","parameterNumber":2,"parameterNumberName":"U-component_of_CURRENTS"},"data":[0,0,0,0,0,0,0,0,0,0,0,0,0,0,0,0,0,0,0,0,0,0,0,0,0,0,0,0,0,0,0,0,0,0,0,0,0,0,0,0,0,0,0,0,0,0,0,0,0,0,0,0,0,0,0,0,0,0,-0.2152,-0.2152,0,-0.2187,-0.2188,-0.2188,-0.2169,-0.2168,-0.2167,-0.2167,-0.2195,-0.2196,-0.2198,0,0,0,0,0,0,0,0,0,0,0,0,0,-0.211,-0.2111,-0.2152,-0.2152,-0.2153,-0.2187,-0.2188,-0.2188,-0.2169,-0.2168,-0.2167,-0.2166,-0.2194,-0.2196,-0.2198,0,0,0,0,0,0,0,0,0,0,0,0,0,-0.2133,-0.2111,-0.2152,-0.215,-0.215,-0.2187,-0.2188,-0.2188,-0.2169,-0.2168,-0.2167,-0.2166,-0.2194,-0.2196,-0.2198,-0.2234,0,0,-0.2205,-0.2205,0,0,0,0,0,0,0,0,-0.2132,-0.2134,-0.2149,-0.215,-0.215,-0.2175,-0.2183,-0.2204,-0.2169,-0.2159,-0.2167,-0.2165,-0.219,-0.2192,-0.2198,-0.2235,-0.2236,-0.2205,-0.2206,-0.2207,-0.2208,0,0,0,0,0,0,0,-0.213,-0.2133,-0.2163,-0.215,-0.2151,-0.2162,-0.2163,-0.2187,-0.2178,-0.216,-0.2159,-0.2168,-0.2189,-0.2196,-0.2199,-0.2236,-0.2205,-0.2207,-0.2208,-0.2209,-0.2317,-0.2318,0,0,0,0,0,0,-0.213,-0.2131,-0.2162,-0.2165,-0.2141,-0.2163,-0.2165,-0.2166,-0.2178,-0.218,-0.2168,-0.2167,-0.2193,-0.2196,-0.2199,-0.2237,-0.2207,-0.2209,-0.221,-0.2315,-0.2317,-0.2319,0,0,0,0,0,0,-0.2128,-0.2132,-0.2161,-0.2151,-0.2156,-0.2165,-0.2167,-0.2167,-0.2176,-0.2185,-0.2186,-0.2177,-0.2192,-0.2196,-0.2231,-0.2238,-0.221,-0.2212,-0.2314,-0.2316,-0.2318,-0.2316,0,0,0,0,0,0,-0.2127,-0.2131,-0.2133,-0.2151,-0.2156,-0.2187,-0.2168,-0.2169,-0.2183,-0.2181,-0.2193,-0.2194,-0.2192,-0.2228,-0.2233,-0.224,-0.2214,-0.2312,-0.2315,-0.2317,-0.2314,-0.2318,-0.2321,0,0,0,0,0,-0.2125,-0.2133,-0.2132,-0.2137,-0.2158,-0.2188,-0.2192,-0.2194,-0.2185,-0.2195,-0.2206,-0.2193,-0.225,-0.2231,-0.2237,-0.2245,-0.231,-0.2314,-0.2317,-0.2312,-0.2317,-0.2321,0,0,0,0,0,0,-0.2116,-0.2133,-0.2132,-0.2144,-0.2167,-0.2186,-0.2196,-0.2201,-0.2218,-0.2217,-0.2217,-0.2221,-0.2258,-0.2261,-0.224,-0.2289,-0.2277,-0.2282,-0.2271,-0.2276,-0.228,-0.2248,-0.2215,0,0,0,0,0,-0.2116,-0.2122,-0.2147,-0.2156,-0.2168,-0.2184,-0.2197,-0.2204,-0.2223,-0.2228,-0.2242,-0.2258,-0.2279,-0.2283,-0.2311,-0.2335,-0.2309,-0.2346,-0.235,-0.2353,-0.2334,-0.231,-0.2309,-0.2331,-0.2331,-0.2331,0,0,-0.2114,-0.2125,-0.2128,-0.2154,-0.2168,-0.2189,-0.2188,-0.2214,-0.2226,-0.2231,-0.2256,-0.2281,-0.2295,-0.2324,-0.2338,-0.2321,-0.2336,-0.2357,-0.2359,-0.2338,-0.2314,-0.2311,-0.2308,-0.2333,-0.2333,-0.2332,0,0,-0.2121,-0.2125,-0.2136,-0.2156,-0.2187,-0.2199,-0.2209,-0.2242,-0.2248,-0.2285,-0.2291,-0.231,-0.2355,-0.2349,-0.2353,-0.2394,-0.2368,-0.2421,-0.2395,-0.2373,-0.237,-0.2367,-0.2332,-0.2325,-0.2407,-0.2407,-0.2407,0,-0.212,-0.2131,-0.2147,-0.2167,-0.218,-0.2203,-0.2223,-0.2238,-0.2278,-0.2286,-0.2295,-0.2345,-0.2355,-0.236,-0.2373,-0.2396,-0.2382,-0.2372,-0.2373,-0.2369,-0.2366,-0.2331,-0.2323,-0.2407,-0.2407,-0.2407,-0.2407,0,-0.2135,-0.2146,-0.2157,-0.218,-0.2201,-0.2223,-0.2248,-0.2273,-0.229,-0.2302,-0.2333,-0.235,-0.2366,-0.2382,-0.2386,-0.2378,-0.2377,-0.2389,-0.235,-0.2362,-0.2326,-0.2318,-0.2408,-0.2408,-0.2408,-0.2408,0,0,-0.2123,-0.2159,-0.2161,-0.2169,-0.2208,-0.2225,-0.2251,-0.2276,-0.2283,-0.2318,-0.232,-0.235,-0.2356,-0.2361,-0.2371,-0.2344,-0.2309,-0.2354,-0.2353,-0.2296,-0.2255,-0.2177,-0.2161,-0.2327,-0.2326,-0.2325,-0.2238,0,-0.2128,-0.2154,-0.2175,-0.2197,-0.2209,-0.2239,-0.2257,-0.2283,-0.2304,-0.2318,-0.2318,-0.2336,-0.2347,-0.2355,-0.2332,-0.2332,-0.229,-0.2331,-0.227,-0.2267,-0.2177,-0.215,-0.2009,-0.1913,-0.223,-0.2229,-0.2228,0,-0.2128,-0.2145,-0.2165,-0.2193,-0.2202,-0.2221,-0.2246,-0.2268,-0.229,-0.2307,-0.2314,-0.2326,-0.2306,-0.2312,-0.2267,-0.23,-0.2267,-0.225,-0.2247,-0.2162,-0.2174,-0.1954,-0.1887,-0.2215,-0.2216,-0.2217,-0.2218,0,-0.2091,-0.2131,-0.2141,-0.2152,-0.2194,-0.2208,-0.223,-0.2261,-0.2277,-0.2291,-0.2305,-0.2293,-0.2289,-0.2254,-0.2227,-0.225,-0.2165,-0.2191,-0.2079,-0.2073,-0.193,-0.1913,-0.2126,-0.2126,-0.2126,-0.2126,-0.2126,0,-0.2073,-0.2079,-0.2124,-0.2128,-0.214,-0.2181,-0.2196,-0.2221,-0.2253,-0.2256,-0.2288,-0.2281,-0.2277,-0.2242,-0.2208,-0.211,-0.2144,-0.2048,-0.2036,-0.1928,-0.1913,-0.2164,-0.217,-0.2123,-0.2124,-0.2124,-0.2125,0,-0.2019,-0.2052,-0.2063,-0.2108,-0.212,-0.2125,-0.2175,-0.2182,-0.2229,-0.2232,-0.2236,-0.2265,-0.2214,-0.2187,-0.2122,-0.2075,-0.1997,-0.195,-0.1816,-0.1788,-0.1924,-0.1931,-0.1807,-0.1803,-0.18,-0.1797,-0.1795,0,-0.1988,-0.1988,-0.203,-0.2033,-0.2051,-0.2074,-0.2086,-0.215,-0.2163,-0.2209,-0.2198,-0.2179,-0.2122,-0.2006,-0.1913,-0.18,-0.1892,-0.1619,-0.1624,-0.1885,-0.1887,-0.1899,-0.191,-0.1438,-0.1433,-0.1429,-0.1426,0,-0.1918,-0.1937,-0.1943,-0.1954,-0.1966,-0.1983,-0.201,-0.2022,-0.2084,-0.209,-0.2072,-0.2031,-0.1933,-0.1749,-0.1626,-0.1554,-0.1629,-0.1532,-0.1819,-0.1549,-0.1532,-0.1537,-0.156,-0.139,-0.1393,-0.1396,-0.1398,-0.1399,-0.1849,-0.1838,-0.1847,-0.1844,-0.1864,-0.186,-0.1827,-0.1867,-0.1859,-0.1824,-0.1881,-0.1758,-0.1717,-0.1437,-0.133,-0.1248,-0.1367,-0.131,-0.1325,-0.1343,-0.1324,-0.1303,-0.1114,-0.1116,-0.1117,-0.1119,-0.112,0,-0.1742,-0.1738,-0.1733,-0.1721,-0.1689,-0.1741,-0.174,-0.1678,-0.1614,-0.1607,-0.1551,-0.1348,-0.1203,-0.1166,-0.0972,-0.0921,-0.0933,-0.0889,-0.0915,-0.0951,-0.0982,-0.0948,-0.0636,-0.0634,-0.0633,-0.0632,0,0,-0.1683,-0.1632,-0.1628,-0.1534,-0.1526,-0.1432,-0.1398,-0.1331,-0.1288,-0.1179,-0.1107,-0.1147,-0.1137,-0.0901,-0.083,-0.0701,-0.0823,-0.0659,-0.1047,-0.1115,-0.1145,-0.122,-0.1205,0,0,0,0,0]},{"header":{"parameterUnit":"m.s-1","parameterCategory":2,"la1":30.2991,"la2":30.254,"lo1":-89.0895,"lo2":-89.0444,"dy":0.0017,"dx":0.0017,"nx":28,"ny":28,"refTime":"2026-02-10T09:00:00:Z","depth":"2","parameterNumber":3,"parameterNumberName":"V-component_of_CURRENTS"},"data":[0,0,0,0,0,0,0,0,0,0,0,0,0,0,0,0,0,0,0,0,0,0,0,0,0,0,0,0,0,0,0,0,0,0,0,0,0,0,0,0,0,0,0,0,0,0,0,0,0,0,0,0,0,0,0,0,0,0,-0.0526,-0.0526,0,-0.0466,-0.0465,-0.0465,-0.0421,-0.0421,-0.042,-0.0419,-0.0294,-0.0291,-0.0289,0,0,0,0,0,0,0,0,0,0,0,0,0,-0.0565,-0.0565,-0.0527,-0.0526,-0.0525,-0.0466,-0.0465,-0.0465,-0.0421,-0.0421,-0.042,-0.0419,-0.0295,-0.0292,-0.0288,0,0,0,0,0,0,0,0,0,0,0,0,0,-0.0534,-0.0565,-0.0527,-0.0494,-0.049,-0.0466,-0.0465,-0.0465,-0.0421,-0.0421,-0.042,-0.0419,-0.0296,-0.0292,-0.0288,-0.028,0,0,-0.0275,-0.0273,0,0,0,0,0,0,0,0,-0.0535,-0.0533,-0.05,-0.0496,-0.0492,-0.0448,-0.0433,-0.0399,-0.0422,-0.045,-0.0419,-0.0418,-0.0338,-0.0331,-0.0326,-0.0274,-0.0269,-0.0275,-0.0272,-0.027,-0.0269,0,0,0,0,0,0,0,-0.0538,-0.0535,-0.0505,-0.0499,-0.0494,-0.0468,-0.0464,-0.0426,-0.0401,-0.0448,-0.0444,-0.0433,-0.0336,-0.033,-0.0322,-0.0267,-0.0275,-0.0271,-0.0269,-0.0267,-0.0179,-0.0179,0,0,0,0,0,0,-0.0543,-0.0537,-0.0507,-0.0503,-0.0509,-0.0468,-0.0463,-0.0465,-0.0403,-0.0392,-0.0434,-0.0431,-0.0338,-0.0327,-0.0318,-0.0283,-0.027,-0.0267,-0.0264,-0.0179,-0.0179,-0.0179,0,0,0,0,0,0,-0.0545,-0.0542,-0.0509,-0.0516,-0.0509,-0.0469,-0.0471,-0.0464,-0.0455,-0.0392,-0.0381,-0.0431,-0.0337,-0.0324,-0.0283,-0.0279,-0.0265,-0.0261,-0.0178,-0.0179,-0.0179,-0.0228,0,0,0,0,0,0,-0.0546,-0.0543,-0.0548,-0.0517,-0.0509,-0.05,-0.0472,-0.0464,-0.0449,-0.0445,-0.0386,-0.0374,-0.0335,-0.029,-0.0279,-0.0273,-0.0258,-0.0178,-0.0179,-0.0179,-0.0226,-0.0229,-0.0233,0,0,0,0,0,-0.0548,-0.056,-0.055,-0.0545,-0.0518,-0.05,-0.0495,-0.0464,-0.045,-0.0452,-0.0408,-0.0376,-0.0284,-0.0287,-0.0274,-0.0266,-0.0178,-0.0178,-0.0179,-0.0224,-0.0229,-0.0232,0,0,0,0,0,0,-0.0578,-0.0555,-0.0543,-0.0548,-0.0527,-0.0492,-0.0489,-0.0469,-0.044,-0.0433,-0.0377,-0.0362,-0.0324,-0.0293,-0.0297,-0.0243,-0.0226,-0.0224,-0.0265,-0.0269,-0.0272,-0.0279,-0.0254,0,0,0,0,0,-0.0588,-0.0593,-0.0563,-0.0567,-0.056,-0.0527,-0.0516,-0.0496,-0.0463,-0.045,-0.0408,-0.0362,-0.0318,-0.0292,-0.0253,-0.0224,-0.0183,-0.0212,-0.0215,-0.0218,-0.0216,-0.0149,-0.0146,-0.018,-0.018,-0.018,0,0,-0.06,-0.0587,-0.059,-0.0573,-0.0556,-0.055,-0.0519,-0.0508,-0.0498,-0.044,-0.0416,-0.0373,-0.0314,-0.028,-0.026,-0.0251,-0.0189,-0.0219,-0.0222,-0.0217,-0.0149,-0.0146,-0.0143,-0.018,-0.018,-0.018,0,0,-0.0624,-0.0617,-0.0627,-0.0616,-0.0593,-0.0571,-0.057,-0.0539,-0.0521,-0.0496,-0.0446,-0.0401,-0.0347,-0.0297,-0.0265,-0.0265,-0.0211,-0.0256,-0.0274,-0.021,-0.0206,-0.0202,-0.0157,-0.0148,-0.0256,-0.0256,-0.0256,0,-0.0637,-0.0645,-0.0627,-0.0631,-0.062,-0.0584,-0.0587,-0.0567,-0.0525,-0.0504,-0.0495,-0.0398,-0.0352,-0.0289,-0.0291,-0.0271,-0.0233,-0.0263,-0.0213,-0.0209,-0.0204,-0.0158,-0.0148,-0.0258,-0.0258,-0.0258,-0.0257,0,-0.0666,-0.067,-0.0675,-0.0668,-0.0657,-0.0655,-0.0623,-0.0608,-0.0581,-0.055,-0.0494,-0.0433,-0.0369,-0.0351,-0.032,-0.0263,-0.0247,-0.0227,-0.0203,-0.0203,-0.0155,-0.0144,-0.0262,-0.0261,-0.026,-0.0259,0,0,-0.0695,-0.0695,-0.0696,-0.0697,-0.0676,-0.0669,-0.0654,-0.062,-0.06,-0.0559,-0.052,-0.0451,-0.0411,-0.0373,-0.0322,-0.0271,-0.0212,-0.0242,-0.0237,-0.0198,-0.0079,-0.0058,-0.0043,-0.018,-0.0179,-0.0177,-0.0063,0,-0.0718,-0.0738,-0.0726,-0.0735,-0.074,-0.0705,-0.069,-0.0656,-0.0618,-0.0574,-0.0502,-0.045,-0.042,-0.0386,-0.033,-0.024,-0.0183,-0.0245,-0.0084,-0.0079,-0.006,-0.0029,-0.0045,0.0056,-0.0052,-0.005,-0.0049,0,-0.0747,-0.0754,-0.0773,-0.0763,-0.0761,-0.0759,-0.0721,-0.0704,-0.0635,-0.0602,-0.0537,-0.0478,-0.0393,-0.037,-0.0218,-0.026,-0.0174,-0.0108,-0.0102,-0.0054,-0.0036,0.0042,0.0081,-0.003,-0.0031,-0.0033,-0.0034,0,-0.0776,-0.0783,-0.0798,-0.0798,-0.0784,-0.0779,-0.0764,-0.0713,-0.0693,-0.0615,-0.0589,-0.048,-0.042,-0.0306,-0.0178,-0.0191,-0.0012,-0.0007,0.0096,0.0098,0.013,0.0132,0.0112,0.0112,0.0112,0.0112,0.0111,0,-0.0803,-0.0814,-0.0816,-0.0827,-0.0839,-0.0813,-0.0807,-0.0775,-0.0721,-0.0691,-0.0606,-0.055,-0.04,-0.0284,-0.0172,-0.0005,0.0001,0.0104,0.0138,0.0111,0.0109,0.0071,0.0065,0.0116,0.0115,0.0114,0.0113,0,-0.0834,-0.0835,-0.0857,-0.0856,-0.0858,-0.0869,-0.0855,-0.0847,-0.079,-0.0746,-0.0722,-0.0591,-0.0435,-0.0285,-0.0084,0.0006,0.016,0.0222,0.0169,0.0194,0.0221,0.0211,0.0346,0.0348,0.0349,0.0351,0.0352,0,-0.085,-0.0867,-0.0892,-0.0914,-0.0919,-0.0929,-0.0936,-0.089,-0.0874,-0.0766,-0.0744,-0.0585,-0.0458,-0.0171,0.0022,0.0233,0.0226,0.0334,0.0313,0.0231,0.025,0.0237,0.0225,0.0333,0.0334,0.0335,0.0335,0,-0.088,-0.0893,-0.0915,-0.0966,-0.099,-0.1008,-0.1007,-0.1004,-0.0934,-0.0867,-0.0745,-0.063,-0.0356,-0.0116,0.0145,0.0261,0.0293,0.0356,0.0317,0.0267,0.0227,0.0242,0.023,0.0342,0.0341,0.0341,0.034,0.034,-0.0901,-0.0933,-0.097,-0.1013,-0.1047,-0.1072,-0.1072,-0.1042,-0.0989,-0.086,-0.0751,-0.0544,-0.0331,0.0055,0.0233,0.039,0.0383,0.0424,0.0419,0.0413,0.0383,0.0347,0.0478,0.0478,0.0478,0.0478,0.0478,0,-0.0922,-0.096,-0.1012,-0.1062,-0.1102,-0.1106,-0.1104,-0.1063,-0.0982,-0.0841,-0.0683,-0.0411,-0.0148,0.0065,0.0326,0.0475,0.0453,0.0493,0.0436,0.0429,0.0423,0.039,0.0489,0.0489,0.0489,0.049,0,0,-0.0934,-0.0987,-0.1017,-0.1088,-0.1124,-0.114,-0.113,-0.1039,-0.0924,-0.0748,-0.0583,-0.0384,-0.0128,0.0058,0.0244,0.0376,0.036,0.0385,0.0363,0.0267,0.0259,0.0373,0.0314,0,0,0,0,0]}],[{"header":{"parameterUnit":"m.s-1","parameterCategory":2,"la1":30.2991,"la2":30.254,"lo1":-89.0895,"lo2":-89.0444,"dy":0.0017,"dx":0.0017,"nx":28,"ny":28,"refTime":"2026-02-10T09:00:00:Z","depth":"4","parameterNumber":2,"parameterNumberName":"U-component_of_CURRENTS"},"data":[0,0,0,0,0,0,0,0,0,0,0,0,0,0,0,0,0,0,0,0,0,0,0,0,0,0,0,0,0,0,0,0,0,0,0,0,0,0,0,0,0,0,0,0,0,0,0,0,0,0,0,0,0,0,0,0,0,0,-0.1428,-0.1428,0,-0.1478,-0.1478,-0.1479,-0.151,-0.151,-0.151,-0.151,-0.1557,-0.1558,-0.1559,0,0,0,0,0,0,0,0,0,0,0,0,0,-0.1375,-0.1376,-0.1428,-0.1428,-0.1429,-0.1478,-0.1478,-0.1479,-0.151,-0.151,-0.151,-0.151,-0.1557,-0.1558,-0.1559,0,0,0,0,0,0,0,0,0,0,0,0,0,-0.1407,-0.1376,-0.1427,-0.1451,-0.1454,-0.1477,-0.1478,-0.1479,-0.1509,-0.151,-0.151,-0.1511,-0.1557,-0.1558,-0.1559,-0.156,0,0,-0.1564,-0.1565,0,0,0,0,0,0,0,0,-0.1406,-0.1409,-0.1447,-0.145,-0.1453,-0.1489,-0.1477,-0.1506,-0.1509,-0.1487,-0.151,-0.1511,-0.1535,-0.1538,-0.1545,-0.1563,-0.1565,-0.1564,-0.1565,-0.1566,-0.1566,0,0,0,0,0,0,0,-0.1403,-0.1407,-0.1446,-0.1448,-0.1451,-0.1465,-0.147,-0.1483,-0.1507,-0.1489,-0.1492,-0.1499,-0.1536,-0.1543,-0.1546,-0.1565,-0.1564,-0.1565,-0.1566,-0.1567,-0.1648,-0.1649,0,0,0,0,0,0,-0.1398,-0.1405,-0.1445,-0.1448,-0.1431,-0.1466,-0.1471,-0.1476,-0.1507,-0.1512,-0.1499,-0.15,-0.154,-0.1544,-0.1548,-0.1606,-0.1566,-0.1567,-0.1568,-0.1647,-0.1648,-0.165,0,0,0,0,0,0,-0.1397,-0.1401,-0.1443,-0.1429,-0.1435,-0.1466,-0.1471,-0.1477,-0.151,-0.1515,-0.152,-0.1529,-0.1541,-0.1546,-0.1584,-0.1606,-0.1568,-0.1569,-0.1645,-0.1647,-0.1649,-0.1687,0,0,0,0,0,0,-0.1395,-0.14,-0.1414,-0.1428,-0.1436,-0.1471,-0.1471,-0.1477,-0.1512,-0.1516,-0.1542,-0.1545,-0.1542,-0.1582,-0.1585,-0.1607,-0.157,-0.1644,-0.1646,-0.1648,-0.1684,-0.169,-0.1695,0,0,0,0,0,-0.1393,-0.1406,-0.1414,-0.142,-0.145,-0.1472,-0.1478,-0.15,-0.1514,-0.1531,-0.1553,-0.1546,-0.1599,-0.1584,-0.1588,-0.1611,-0.1643,-0.1645,-0.1648,-0.1681,-0.1689,-0.1694,0,0,0,0,0,0,-0.1392,-0.1411,-0.142,-0.1439,-0.1462,-0.1478,-0.1501,-0.1516,-0.1548,-0.156,-0.1564,-0.1569,-0.1609,-0.1608,-0.1591,-0.1642,-0.1619,-0.1623,-0.1643,-0.165,-0.1655,-0.1645,-0.1571,0,0,0,0,0,-0.1397,-0.1413,-0.1432,-0.1451,-0.1464,-0.1489,-0.1507,-0.1523,-0.1547,-0.1563,-0.1582,-0.1602,-0.1619,-0.1634,-0.1648,-0.1678,-0.1663,-0.1696,-0.1701,-0.1706,-0.1701,-0.1708,-0.1713,-0.1659,-0.1659,-0.1659,0,0,-0.1403,-0.1416,-0.1426,-0.1453,-0.1473,-0.1496,-0.1501,-0.1537,-0.1559,-0.1562,-0.1609,-0.1625,-0.1632,-0.1665,-0.1682,-0.167,-0.1712,-0.1709,-0.1713,-0.1706,-0.1711,-0.1716,-0.1721,-0.1661,-0.1661,-0.166,0,0,-0.1416,-0.1436,-0.1452,-0.1473,-0.1508,-0.1521,-0.1538,-0.1571,-0.1593,-0.1635,-0.1642,-0.167,-0.1706,-0.1709,-0.1714,-0.1758,-0.1741,-0.1773,-0.1793,-0.18,-0.1804,-0.1807,-0.1785,-0.1787,-0.1775,-0.1775,-0.1775,0,-0.1427,-0.1446,-0.1463,-0.1485,-0.1507,-0.1535,-0.1562,-0.1584,-0.1628,-0.1649,-0.1658,-0.1715,-0.172,-0.1748,-0.1762,-0.1769,-0.1765,-0.1766,-0.1805,-0.1808,-0.1811,-0.1788,-0.1789,-0.1777,-0.1777,-0.1777,-0.1777,0,-0.1444,-0.1471,-0.1486,-0.1519,-0.1544,-0.1575,-0.1603,-0.164,-0.1673,-0.1693,-0.1744,-0.1757,-0.1787,-0.1796,-0.1792,-0.1821,-0.1809,-0.181,-0.1785,-0.1818,-0.1792,-0.1793,-0.178,-0.178,-0.1779,-0.1779,0,0,-0.1435,-0.1488,-0.1497,-0.152,-0.1568,-0.1588,-0.1632,-0.1673,-0.1707,-0.175,-0.1787,-0.1817,-0.1833,-0.1839,-0.1844,-0.1848,-0.1858,-0.1843,-0.1843,-0.1814,-0.1861,-0.1725,-0.1711,-0.1876,-0.1877,-0.1877,-0.1831,0,-0.1448,-0.149,-0.1516,-0.1565,-0.1588,-0.163,-0.1665,-0.1708,-0.1747,-0.1789,-0.181,-0.1846,-0.1846,-0.1867,-0.1875,-0.1867,-0.1863,-0.1869,-0.1839,-0.1837,-0.1706,-0.1708,-0.1879,-0.1831,-0.1831,-0.1831,-0.1831,0,-0.1449,-0.148,-0.1528,-0.1586,-0.1603,-0.164,-0.1705,-0.174,-0.1796,-0.1827,-0.1869,-0.1886,-0.1905,-0.1899,-0.1898,-0.1909,-0.1887,-0.1872,-0.187,-0.1727,-0.17,-0.1794,-0.1831,-0.1831,-0.1831,-0.1831,-0.1831,0,-0.1418,-0.1485,-0.1525,-0.1546,-0.1616,-0.1656,-0.1698,-0.1759,-0.1791,-0.1852,-0.1881,-0.1913,-0.1931,-0.1924,-0.1893,-0.1907,-0.1872,-0.1885,-0.1736,-0.1726,-0.1847,-0.1844,-0.1873,-0.1873,-0.1873,-0.1873,-0.1873,0,-0.14,-0.1437,-0.1521,-0.1542,-0.1596,-0.1651,-0.1711,-0.1756,-0.1819,-0.1842,-0.19,-0.191,-0.1942,-0.1927,-0.1898,-0.18,-0.1875,-0.1724,-0.1703,-0.1863,-0.1863,-0.1846,-0.1843,-0.1871,-0.1872,-0.1872,-0.1872,0,-0.1349,-0.1408,-0.1458,-0.1549,-0.1581,-0.1619,-0.171,-0.174,-0.1815,-0.1846,-0.1865,-0.1915,-0.1882,-0.1878,-0.1848,-0.1784,-0.1716,-0.1663,-0.1811,-0.1801,-0.1566,-0.1566,-0.1493,-0.1488,-0.1484,-0.148,-0.1477,0,-0.1321,-0.1344,-0.1449,-0.1479,-0.1526,-0.1595,-0.1632,-0.1724,-0.1747,-0.1822,-0.1816,-0.1827,-0.1834,-0.1672,-0.1693,-0.1607,-0.1589,-0.1547,-0.1573,-0.1539,-0.1527,-0.1534,-0.154,-0.147,-0.1469,-0.1467,-0.1466,0,-0.126,-0.1314,-0.1352,-0.1414,-0.1467,-0.1514,-0.1575,-0.1584,-0.1666,-0.1757,-0.1704,-0.1663,-0.1618,-0.1572,-0.1507,-0.1456,-0.1573,-0.1501,-0.151,-0.1534,-0.151,-0.1503,-0.1515,-0.1451,-0.1453,-0.1454,-0.1455,0,-0.1212,-0.1224,-0.1282,-0.132,-0.1385,-0.1396,-0.1448,-0.1458,-0.1491,-0.1575,-0.155,-0.1552,-0.1598,-0.1491,-0.1435,-0.1365,-0.135,-0.131,-0.133,-0.1347,-0.1318,-0.1267,-0.1099,0,0,0,0,0,-0.115,-0.1145,-0.1177,-0.1209,-0.1269,-0.1299,-0.1385,-0.1437,-0.1525,-0.1441,-0.1489,-0.143,-0.1343,-0.1353,-0.1244,-0.1369,-0.1359,-0.1239,-0.1327,-0.1365,-0.1383,-0.1361,0,0,0,0,0,0,-0.1105,-0.113,-0.1135,-0.1102,-0.1099,-0.1144,-0.119,-0.1254,-0.1219,-0.1312,-0.1267,-0.1334,-0.1269,-0.1365,-0.1208,-0.1208,-0.1231,-0.1251,-0.1247,-0.1355,-0.1371,-0.1386,-0.137,0,0,0,0,0]},{"header":{"parameterUnit":"m.s-1","parameterCategory":2,"la1":30.2991,"la2":30.254,"lo1":-89.0895,"lo2":-89.0444,"dy":0.0017,"dx":0.0017,"nx":28,"ny":28,"refTime":"2026-02-10T09:00:00:Z","depth":"4","parameterNumber":3,"parameterNumberName":"V-component_of_CURRENTS"},"data":[0,0,0,0,0,0,0,0,0,0,0,0,0,0,0,0,0,0,0,0,0,0,0,0,0,0,0,0,0,0,0,0,0,0,0,0,0,0,0,0,0,0,0,0,0,0,0,0,0,0,0,0,0,0,0,0,0,0,-0.0417,-0.0416,0,-0.039,-0.0389,-0.0389,-0.0367,-0.0366,-0.0366,-0.0366,-0.0304,-0.0302,-0.0301,0,0,0,0,0,0,0,0,0,0,0,0,0,-0.0423,-0.0424,-0.0417,-0.0416,-0.0416,-0.039,-0.0389,-0.0389,-0.0367,-0.0366,-0.0366,-0.0365,-0.0304,-0.0303,-0.0301,0,0,0,0,0,0,0,0,0,0,0,0,0,-0.0412,-0.0424,-0.0417,-0.04,-0.0399,-0.039,-0.0389,-0.0389,-0.0367,-0.0366,-0.0366,-0.0365,-0.0305,-0.0303,-0.0301,-0.03,0,0,-0.0295,-0.0294,0,0,0,0,0,0,0,0,-0.0413,-0.0412,-0.0403,-0.0402,-0.0399,-0.038,-0.0369,-0.0357,-0.0367,-0.038,-0.0366,-0.0365,-0.0325,-0.0322,-0.032,-0.0297,-0.0294,-0.0295,-0.0293,-0.0293,-0.0292,0,0,0,0,0,0,0,-0.0414,-0.0413,-0.0407,-0.0403,-0.04,-0.0385,-0.0384,-0.0367,-0.0357,-0.0379,-0.0377,-0.0372,-0.0324,-0.0322,-0.0319,-0.0293,-0.0295,-0.0293,-0.0292,-0.0291,-0.0265,-0.0266,0,0,0,0,0,0,-0.0416,-0.0414,-0.0408,-0.0407,-0.0403,-0.0386,-0.0384,-0.0388,-0.0358,-0.0352,-0.0372,-0.0371,-0.0326,-0.0321,-0.0316,-0.0311,-0.0293,-0.0291,-0.029,-0.0265,-0.0265,-0.0266,0,0,0,0,0,0,-0.0417,-0.0417,-0.0409,-0.0408,-0.0406,-0.0386,-0.0391,-0.0387,-0.0389,-0.0353,-0.0347,-0.0377,-0.0325,-0.0319,-0.0306,-0.0309,-0.029,-0.0288,-0.0264,-0.0265,-0.0265,-0.0303,0,0,0,0,0,0,-0.0417,-0.0417,-0.0426,-0.0408,-0.0406,-0.0411,-0.0391,-0.0387,-0.0386,-0.0384,-0.0355,-0.0348,-0.0324,-0.031,-0.0304,-0.0306,-0.0287,-0.0263,-0.0264,-0.0265,-0.0301,-0.0305,-0.0308,0,0,0,0,0,-0.0418,-0.0431,-0.0427,-0.0426,-0.0418,-0.0412,-0.041,-0.0394,-0.0387,-0.0393,-0.0372,-0.035,-0.0311,-0.0309,-0.0302,-0.0303,-0.0263,-0.0264,-0.0265,-0.0299,-0.0304,-0.0308,0,0,0,0,0,0,-0.0438,-0.0429,-0.0425,-0.0434,-0.0427,-0.0407,-0.0411,-0.0401,-0.0391,-0.039,-0.0356,-0.0349,-0.034,-0.0319,-0.0317,-0.0299,-0.0283,-0.0283,-0.0311,-0.0315,-0.0319,-0.0312,-0.0285,0,0,0,0,0,-0.0447,-0.0456,-0.0442,-0.0452,-0.045,-0.0434,-0.0431,-0.0422,-0.0407,-0.0403,-0.0382,-0.036,-0.034,-0.0327,-0.0311,-0.03,-0.0258,-0.0297,-0.0301,-0.0304,-0.0295,-0.0229,-0.0224,-0.0269,-0.0269,-0.0269,0,0,-0.0457,-0.0454,-0.0459,-0.0457,-0.045,-0.0452,-0.0431,-0.0433,-0.0433,-0.0397,-0.0396,-0.0375,-0.0343,-0.0332,-0.0325,-0.0313,-0.0272,-0.0305,-0.0308,-0.0297,-0.0229,-0.0224,-0.022,-0.027,-0.027,-0.027,0,0,-0.0478,-0.0481,-0.0492,-0.0491,-0.0485,-0.0474,-0.0477,-0.0465,-0.0459,-0.0456,-0.0428,-0.0404,-0.0386,-0.0353,-0.0335,-0.0347,-0.0298,-0.035,-0.0353,-0.029,-0.0285,-0.028,-0.0233,-0.0224,-0.0345,-0.0345,-0.0345,0,-0.049,-0.0502,-0.0495,-0.0504,-0.0502,-0.0486,-0.0494,-0.0489,-0.0474,-0.0462,-0.0463,-0.0413,-0.0391,-0.035,-0.0358,-0.0352,-0.0314,-0.034,-0.0292,-0.0287,-0.0281,-0.0233,-0.0222,-0.0347,-0.0347,-0.0347,-0.0347,0,-0.0514,-0.0526,-0.0534,-0.0539,-0.0539,-0.0545,-0.0532,-0.0531,-0.0523,-0.0506,-0.0478,-0.0444,-0.0404,-0.04,-0.0384,-0.0336,-0.0322,-0.0309,-0.0279,-0.0278,-0.0229,-0.0217,-0.035,-0.0349,-0.0349,-0.0348,0,0,-0.0531,-0.0547,-0.0551,-0.0558,-0.0557,-0.0558,-0.056,-0.0545,-0.0535,-0.0519,-0.0491,-0.046,-0.0431,-0.0408,-0.0376,-0.0325,-0.0263,-0.0304,-0.03,-0.0252,-0.0129,-0.0149,-0.0137,-0.0238,-0.0236,-0.0234,-0.0115,0,-0.0549,-0.0576,-0.0575,-0.0596,-0.0605,-0.0592,-0.0591,-0.0576,-0.0558,-0.053,-0.0479,-0.0449,-0.0436,-0.0414,-0.0359,-0.029,-0.0231,-0.0297,-0.0141,-0.0136,-0.0148,-0.0123,-0.0228,-0.0106,-0.0103,-0.0101,-0.01,0,-0.0569,-0.0583,-0.061,-0.0618,-0.062,-0.063,-0.0615,-0.0612,-0.0567,-0.0547,-0.0498,-0.0458,-0.0387,-0.0375,-0.0238,-0.0282,-0.0206,-0.015,-0.0143,-0.0135,-0.0132,-0.0103,-0.0077,-0.0079,-0.008,-0.0082,-0.0083,0,-0.0579,-0.0604,-0.0626,-0.0633,-0.0641,-0.0647,-0.0647,-0.0619,-0.061,-0.0553,-0.0532,-0.0442,-0.0394,-0.029,-0.0192,-0.0205,-0.0036,-0.0036,0.0024,0.0023,0.0022,0.0016,0.0083,0.0082,0.0082,0.0082,0.0081,0,-0.0591,-0.0611,-0.0639,-0.0653,-0.0675,-0.067,-0.0678,-0.0661,-0.0625,-0.0604,-0.0542,-0.0493,-0.0369,-0.0268,-0.0175,-0.0044,-0.0017,0.0036,0.0061,-0.0001,-0.0011,0.003,0.0022,0.0086,0.0085,0.0084,0.0084,0,-0.0598,-0.0617,-0.0649,-0.0674,-0.0686,-0.0704,-0.0716,-0.0712,-0.0676,-0.0642,-0.0623,-0.0517,-0.0387,-0.0265,-0.0087,-0.0027,0.0101,0.0146,0.0066,0.0082,0.0115,0.0104,0.0229,0.0229,0.023,0.023,0.023,0,-0.0601,-0.0621,-0.0674,-0.0703,-0.0722,-0.0748,-0.0764,-0.0744,-0.0732,-0.0653,-0.0628,-0.0503,-0.0423,-0.0182,-0.0063,0.0122,0.0143,0.0203,0.0165,0.0123,0.0134,0.0122,0.0111,0.0231,0.0231,0.0231,0.0231,0,-0.0606,-0.0636,-0.0665,-0.0728,-0.0765,-0.0794,-0.0809,-0.08,-0.0758,-0.0729,-0.0606,-0.0483,-0.0334,-0.0169,-0.0027,0.0102,0.0155,0.0208,0.0208,0.0172,0.0127,0.0135,0.0123,0.0233,0.0233,0.0233,0.0232,0,-0.0614,-0.0643,-0.0693,-0.0742,-0.0795,-0.0821,-0.0827,-0.0792,-0.0766,-0.067,-0.0627,-0.0465,-0.0365,-0.0177,-0.0047,0.0073,0.0098,0.0125,0.0129,0.0129,0.005,-0.0026,0.007,0,0,0,0,0,-0.0613,-0.0648,-0.0701,-0.0755,-0.0808,-0.0833,-0.0846,-0.0838,-0.0796,-0.0708,-0.0661,-0.0516,-0.0304,-0.0208,-0.0087,-0.0063,0.0095,0.0078,0.0122,0.0241,0.0239,0.016,0,0,0,0,0,0,-0.0616,-0.0668,-0.0696,-0.0753,-0.079,-0.0837,-0.0847,-0.0821,-0.0757,-0.0697,-0.0576,-0.05,-0.0292,-0.0367,-0.0086,-0.0051,-0.0011,0.0182,0.0184,0.0242,0.024,0.0239,0.0157,0,0,0,0,0]}]]